Satellite-Ground Cal/Val Region Overpasses Predictions

Prediction of Satellite NPP Overpassing Cal/Val Region: PacNW

Region Location: (Latitude: 10.00, Longitude: 139.50) to (Latitude: 22.70, Longitude: 165.60).

Table of predicted overpasses for the next 14.0 days since TLE Epoch: 9/23/2016
Interval Starting Time Starting Location Ending Time Ending Location
1 09/24/2016 03:17:49 ( 10.05, 150.43) 09/24/2016 03:21:24 ( 22.67, 147.43)
2 09/24/2016 15:49:43 ( 22.64, 147.66) 09/24/2016 15:53:18 ( 10.02, 144.66)
3 09/25/2016 02:58:48 ( 10.02, 155.19) 09/25/2016 03:02:24 ( 22.70, 152.18)
4 09/25/2016 15:30:42 ( 22.68, 152.42) 09/25/2016 15:34:17 ( 10.06, 149.42)
5 09/26/2016 02:39:47 ( 10.04, 159.94) 09/26/2016 02:43:22 ( 22.66, 156.94)
6 09/26/2016 15:11:41 ( 22.65, 157.17) 09/26/2016 15:15:16 ( 10.03, 154.17)
7 09/27/2016 02:20:46 ( 10.01, 164.70) 09/27/2016 02:24:22 ( 22.68, 161.69)
8 09/27/2016 14:52:40 ( 22.69, 161.93) 09/27/2016 14:56:16 ( 10.01, 158.91)
9 09/28/2016 03:43:15 ( 10.03, 144.07) 09/28/2016 03:46:50 ( 22.65, 141.07)
10 09/28/2016 14:34:54 ( 18.26, 165.60) 09/28/2016 14:37:14 ( 10.04, 163.68)
11 09/28/2016 16:15:09 ( 22.66, 141.30) 09/28/2016 16:17:15 ( 15.27, 139.51)
12 09/29/2016 03:24:15 ( 10.06, 148.82) 09/29/2016 03:27:50 ( 22.68, 145.82)
13 09/29/2016 15:56:08 ( 22.69, 146.06) 09/29/2016 15:59:44 ( 10.01, 143.05)
14 09/30/2016 03:05:13 ( 10.02, 153.58) 09/30/2016 03:08:48 ( 22.64, 150.58)
15 09/30/2016 15:37:07 ( 22.67, 150.81) 09/30/2016 15:40:42 ( 10.05, 147.81)
16 10/01/2016 02:46:13 ( 10.05, 158.33) 10/01/2016 02:49:48 ( 22.67, 155.33)
17 10/01/2016 15:18:07 ( 22.64, 155.56) 10/01/2016 15:21:42 ( 10.02, 152.56)
18 10/02/2016 02:27:12 ( 10.02, 163.09) 10/02/2016 02:30:48 ( 22.69, 160.07)
19 10/02/2016 14:59:05 ( 22.67, 160.32) 10/02/2016 15:02:40 ( 10.05, 157.32)
20 10/03/2016 02:10:54 ( 19.61, 165.59) 10/03/2016 02:11:46 ( 22.66, 164.84)
21 10/03/2016 03:49:41 ( 10.04, 142.46) 10/03/2016 03:53:13 ( 22.49, 139.50)
22 10/03/2016 14:40:05 ( 22.65, 165.07) 10/03/2016 14:43:40 ( 10.02, 162.06)
23
